#timestamp,LO_Frequency,Hit,StdDev 
1623870015.4,286046998.1,P
1623870035.2,286047000.8,N
1623870055.1,286046998.7,N
1623870056.0,286046998.7,N
1623870075.8,286046997.3,N
1623870095.7,286046998.2,N
1623870115.5,286047000.9,N
1623870135.3,286046998.4,N
1623870155.2,286046999.9,N
1623870175.9,286047000.1,N
1623870195.7,286047001.2,N
1623870215.6,286047002.6,N
1623870235.4,286047001.0,N
1623870255.2,286047002.0,N
1623870275.1,286047002.6,N
1623870276.0,286047002.6,N
1623870295.8,286047002.8,N
1623870315.7,286046999.8,N
1623870335.5,286047001.1,N
1623870355.3,286047001.1,N
1623870375.2,286046998.6,N
1623870395.0,286046998.7,N
1623870395.9,286046998.7,N
1623870415.7,286047002.4,N
1623870435.6,286047002.0,N
1623870455.4,286047002.2,N
1623870475.3,286047000.3,N
1623870495.1,286046999.9,N
1623870496.0,286046999.9,N
1623870515.8,286047001.5,N
1623870535.7,286047002.4,N
1623870555.5,286047000.8,N
1623870575.3,286046999.9,N
1623870595.2,286046998.7,N
1623870615.0,286046999.6,N
1623870615.9,286046999.6,N
1623870635.8,286046999.4,N
1623870655.6,286046999.3,N
1623870675.4,286046998.2,N
1623870695.3,286047000.3,N
1623870715.1,286047000.5,N
1623870735.8,286047000.5,N
1623870755.7,286047000.2,N
1623870775.5,286047000.3,N
1623870795.4,286047002.6,N
1623870815.2,286047002.0,N
1623870835.0,286047000.5,N
1623870835.9,286047000.5,N
1623870855.8,286046999.8,N
1623870875.6,286047002.6,N
1623870895.4,286047000.2,N
1623870915.3,286047002.8,N
1623870935.1,286047003.8,N
1623870955.9,286047001.5,N
1623870975.7,286047002.6,N
1623870995.5,286047002.7,N
1623871015.4,286047002.5,N
1623871035.2,286046999.9,N
1623871055.0,286047002.7,N
1623871055.9,286047002.7,N
1623871075.8,286046999.9,N
1623871095.6,286047001.7,N
1623871115.5,286047001.9,N
1623871135.3,286047003.7,N
1623871155.1,286047005.8,Y
1623871175.9,286047002.6,P
1623871195.7,286047000.0,N
1623871215.6,286047000.2,N
1623871235.4,286047000.0,N
1623871255.2,286047001.2,N
1623871275.1,286046998.9,N
1623871276.0,286046998.9,N
1623871295.8,286047002.8,N
1623871315.7,286047001.2,N
1623871335.5,286047000.9,N
1623871355.3,286046998.5,N
1623871375.2,286046999.4,N
1623871395.0,286046998.8,N
1623871395.9,286046998.8,N
1623871415.7,286046999.3,N
1623871435.6,286046998.7,N
1623871455.4,286046998.6,N
1623871475.3,286047000.3,N
1623871495.1,286046998.1,N
1623871496.0,286046998.1,N
1623871515.8,286047000.9,N
1623871535.7,286047000.4,N
1623871555.5,286046998.5,N
1623871575.3,286046999.0,N
1623871595.2,286046999.1,N
1623871615.0,286046996.8,N
1623871615.9,286046996.8,N
1623871635.8,286046997.1,N
1623871655.6,286046999.5,N
1623871675.4,286046997.3,N
1623871695.3,286046997.2,N
1623871715.1,286046997.3,N
1623871735.9,286046997.3,N
1623871755.7,286046998.0,N
1623871775.5,286046995.4,Y
1623871795.4,286046997.6,P
1623871815.2,286046997.4,P
1623871835.0,286046997.2,P
1623871835.9,286046997.2,Y
1623871855.8,286046998.7,P
1623871875.6,286046998.9,N
1623871895.5,286047000.7,N
1623871915.3,286046999.0,N
1623871935.1,286046998.4,N
1623871955.9,286047001.2,N
1623871975.7,286046998.6,N
1623871995.5,286046998.9,N
1623872015.4,286046999.2,N
1623872035.2,286046998.9,N
1623872055.1,286046999.6,N
1623872056.0,286046999.6,N
1623872075.8,286046997.6,N
1623872095.6,286046995.3,Y
1623872115.5,286046999.0,P
1623872135.3,286046998.5,P
1623872155.1,286046999.6,N
1623872175.9,286046998.6,Y
1623872195.7,286046998.1,P
1623872215.6,286047000.7,N
1623872235.4,286046999.1,N
1623872255.2,286046996.9,Y
1623872275.1,286046996.6,P
1623872276.0,286046996.6,N
1623872295.8,286046999.4,N
1623872315.7,286046998.9,N
1623872335.5,286046998.7,N
1623872355.3,286046998.7,N
1623872375.2,286046999.2,N
1623872395.0,286046996.9,N
1623872395.9,286046996.9,N
1623872415.8,286046996.5,Y
1623872435.6,286047000.9,P
1623872455.4,286047000.5,N
1623872475.3,286046998.1,N
1623872495.1,286046998.9,N
1623872496.0,286046998.9,N
1623872515.8,286046998.1,N
1623872535.7,286047001.2,N
1623872555.5,286047002.7,N
1623872575.3,286046998.5,N
1623872595.2,286046998.4,N
1623872615.0,286046999.3,N
1623872615.9,286046999.3,N
1623872635.8,286046996.7,N
1623872655.6,286046999.4,N
1623872675.4,286046999.6,N
1623872695.3,286046998.4,N
1623872715.1,286047001.0,N
1623872735.9,286047000.8,N
1623872755.7,286047001.0,N
1623872775.5,286046998.6,N
1623872795.4,286046998.4,N
1623872815.2,286046998.7,N
1623872835.0,286046998.1,N
1623872835.9,286046998.1,N
1623872855.8,286047000.9,N
1623872875.6,286047001.0,N
1623872895.5,286046999.9,N
1623872915.3,286047000.1,N
1623872935.1,286047002.4,N
1623872955.9,286047002.3,N
1623872975.7,286047002.4,N
1623872995.5,286046999.9,N
1623873015.4,286047001.1,N
1623873035.2,286046998.2,N
1623873055.1,286047000.9,N
1623873056.0,286047000.9,N
1623873075.8,286047000.5,N
1623873095.6,286047002.7,N
1623873115.5,286047000.2,N
1623873135.3,286047002.7,N
1623873155.1,286047002.4,N
1623873175.9,286047002.5,N
1623873195.7,286047002.3,N
1623873215.6,286047002.6,N
1623873235.4,286046999.9,N
1623873255.2,286047000.1,N
1623873275.1,286047004.4,N
1623873276.0,286047004.4,N
1623873295.8,286047003.2,N
1623873315.7,286047003.5,N
1623873335.5,286047004.0,N
1623873355.3,286047003.0,N
1623873375.2,286047003.5,N
1623873395.9,286047003.4,N
1623873415.7,286047003.2,N
1623873435.6,286047004.4,N
1623873455.4,286047003.9,N
1623873475.3,286047003.4,N
1623873495.1,286047003.1,N
1623873515.9,286047005.9,Y
1623873535.7,286047002.0,P
1623873555.5,286047002.6,P
1623873575.4,286046999.7,N
1623873595.2,286047000.1,N
